When you browse on this site, cookies collect data to enhance your experience and personalize the content and advertising you see.
Visit our Privacy Policy to learn more. By continuing to use the site, you agree to this use of cookies and data.
  • In Netherlands
  • List of Countries
  • For 7 days
  • Water Temperature
  • Satellite Maps
  • Weather Map
  • Weather Widgets
  • user-avatar
    Login

    Hourly Weather Chełmża

    Today, 19 June, Wednesday

    Time Temperature Precipitation Wind Pressure Humidity
    00:00 +17°C° 0 mm 2 mps 755 mmHg 78%
    01:00 +17°C° 0 mm 3 mps 754 mmHg 77%
    02:00 +17°C° 0 mm 3 mps 754 mmHg 80%
    03:00 +17°C° 0 mm 3 mps 754 mmHg 82%
    04:00 +16°C° 0 mm 2 mps 754 mmHg 85%
    05:00 +18°C° 0 mm 3 mps 754 mmHg 82%
    06:00 +19°C° 0 mm 3 mps 754 mmHg 78%
    07:00 +21°C° 0 mm 3 mps 754 mmHg 74%
    08:00 +24°C° 0.1 mm 3 mps 753 mmHg 70%
    09:00 +25°C° 0.1 mm 3 mps 753 mmHg 67%
    10:00 +27°C° 0.1 mm 3 mps 752 mmHg 64%
    11:00 +27°C° 0.4 mm 3 mps 752 mmHg 63%
    12:00 +27°C° 0.4 mm 3 mps 752 mmHg 63%
    13:00 +28°C° 0 mm 3 mps 751 mmHg 61%
    14:00 +28°C° 1 mm 2 mps 751 mmHg 63%
    15:00 +27°C° 1 mm 2 mps 751 mmHg 65%
    16:00 +27°C° 1 mm 2 mps 750 mmHg 66%
    17:00 +27°C° 0.2 mm 2 mps 750 mmHg 70%
    18:00 +26°C° 0.2 mm 2 mps 750 mmHg 74%
    19:00 +25°C° 0.2 mm 1 mps 749 mmHg 78%
    20:00 +24°C° 0 mm 2 mps 749 mmHg 80%
    21:00 +21°C° 0 mm 2 mps 749 mmHg 83%
    22:00 +20°C° 0 mm 2 mps 749 mmHg 86%
    23:00 +20°C° 0 mm 2 mps 749 mmHg 86%

    Tomorrow, 20 June, Thursday

    Time Temperature Precipitation Wind Pressure Humidity
    00:00 +19°C° 0 mm 2 mps 749 mmHg 87%
    01:00 +19°C° 0 mm 2 mps 749 mmHg 88%
    02:00 +19°C° 0 mm 2 mps 749 mmHg 88%
    03:00 +19°C° 0 mm 2 mps 749 mmHg 88%
    04:00 +19°C° 0 mm 1 mps 749 mmHg 89%
    05:00 +20°C° 0 mm 2 mps 749 mmHg 85%
    06:00 +23°C° 0 mm 2 mps 749 mmHg 81%
    07:00 +24°C° 0 mm 2 mps 749 mmHg 78%
    08:00 +26°C° 0.1 mm 2 mps 749 mmHg 72%
    09:00 +27°C° 0.1 mm 3 mps 749 mmHg 66%
    10:00 +29°C° 0.1 mm 3 mps 749 mmHg 59%
    11:00 +30°C° 0 mm 3 mps 749 mmHg 56%
    12:00 +30°C° 0 mm 3 mps 749 mmHg 53%
    13:00 +31°C° 0 mm 3 mps 749 mmHg 50%
    14:00 +31°C° 0 mm 3 mps 749 mmHg 51%
    15:00 +31°C° 0 mm 3 mps 749 mmHg 52%
    16:00 +31°C° 0 mm 3 mps 749 mmHg 53%
    17:00 +30°C° 0.1 mm 3 mps 749 mmHg 60%
    18:00 +28°C° 0.1 mm 3 mps 749 mmHg 66%
    19:00 +26°C° 0.1 mm 3 mps 749 mmHg 72%
    20:00 +25°C° 1 mm 3 mps 750 mmHg 77%
    21:00 +23°C° 1 mm 2 mps 750 mmHg 81%
    22:00 +20°C° 1 mm 2 mps 750 mmHg 86%
    23:00 +20°C° 0.5 mm 2 mps 751 mmHg 88%

    Day after tomorrow, 21 June, Friday

    Time Temperature Precipitation Wind Pressure Humidity
    00:00 +19°C° 0.5 mm 2 mps 751 mmHg 90%
    01:00 +19°C° 0.5 mm 2 mps 751 mmHg 92%
    02:00 +19°C° 0 mm 2 mps 751 mmHg 93%
    03:00 +19°C° 0 mm 2 mps 751 mmHg 94%
    04:00 +19°C° 0 mm 2 mps 751 mmHg 94%
    05:00 +21°C° 0.1 mm 1 mps 752 mmHg 92%
    06:00 +21°C° 0.1 mm 1 mps 752 mmHg 90%
    07:00 +22°C° 0.1 mm 1 mps 753 mmHg 88%
    08:00 +23°C° 0.3 mm 2 mps 753 mmHg 84%
    09:00 +23°C° 0.3 mm 2 mps 753 mmHg 80%
    10:00 +24°C° 0.3 mm 3 mps 754 mmHg 75%
    11:00 +24°C° 0.2 mm 2 mps 754 mmHg 72%
    12:00 +25°C° 0.2 mm 2 mps 754 mmHg 70%
    13:00 +25°C° 0.2 mm 1 mps 754 mmHg 67%
    14:00 +25°C° 0.5 mm 2 mps 754 mmHg 68%
    15:00 +25°C° 0.5 mm 2 mps 754 mmHg 69%
    16:00 +25°C° 0.5 mm 3 mps 754 mmHg 70%
    17:00 +24°C° 0.6 mm 3 mps 754 mmHg 76%
    18:00 +22°C° 0.6 mm 3 mps 754 mmHg 82%
    19:00 +21°C° 0.6 mm 3 mps 754 mmHg 88%
    20:00 +19°C° 0.1 mm 3 mps 755 mmHg 90%
    21:00 +18°C° 0.1 mm 2 mps 756 mmHg 91%
    22:00 +17°C° 0.1 mm 2 mps 756 mmHg 93%
    23:00 +16°C° 0 mm 2 mps 756 mmHg 93%

    22 June, Saturday

    Time Temperature Precipitation Wind Pressure Humidity
    00:00 +15°C° 0 mm 2 mps 757 mmHg 93%
    01:00 +15°C° 0 mm 2 mps 757 mmHg 94%
    02:00 +14°C° 0 mm 2 mps 757 mmHg 94%
    03:00 +14°C° 0 mm 2 mps 757 mmHg 94%
    04:00 +13°C° 0 mm 2 mps 757 mmHg 94%
    05:00 +14°C° 0 mm 2 mps 758 mmHg 90%
    06:00 +16°C° 0 mm 3 mps 758 mmHg 85%
    07:00 +17°C° 0 mm 3 mps 759 mmHg 80%
    08:00 +18°C° 0 mm 3 mps 759 mmHg 73%
    09:00 +20°C° 0 mm 3 mps 759 mmHg 66%
    10:00 +21°C° 0 mm 3 mps 759 mmHg 59%
    11:00 +22°C° 0 mm 3 mps 759 mmHg 59%
    12:00 +22°C° 0 mm 4 mps 759 mmHg 59%
    13:00 +23°C° 0 mm 4 mps 759 mmHg 59%
    14:00 +22°C° 0 mm 4 mps 759 mmHg 61%
    15:00 +22°C° 0 mm 4 mps 759 mmHg 63%
    16:00 +21°C° 0 mm 5 mps 759 mmHg 65%
    17:00 +20°C° 0 mm 4 mps 759 mmHg 68%
    18:00 +19°C° 0 mm 4 mps 759 mmHg 72%
    19:00 +17°C° 0 mm 4 mps 759 mmHg 75%
    20:00 +15°C° 0 mm 4 mps 759 mmHg 77%
    21:00 +14°C° 0 mm 4 mps 759 mmHg 79%
    22:00 +12°C° 0 mm 3 mps 759 mmHg 82%
    23:00 +12°C° 0 mm 3 mps 759 mmHg 82%

    23 June, Sunday

    Time Temperature Precipitation Wind Pressure Humidity
    00:00 +11°C° 0 mm 3 mps 759 mmHg 82%
    01:00 +10°C° 0 mm 3 mps 759 mmHg 83%
    02:00 +10°C° 0 mm 3 mps 759 mmHg 82%
    03:00 +10°C° 0 mm 3 mps 759 mmHg 82%
    04:00 +10°C° 0 mm 3 mps 759 mmHg 82%
    05:00 +11°C° 0 mm 3 mps 759 mmHg 78%
    06:00 +12°C° 0 mm 3 mps 760 mmHg 75%
    07:00 +13°C° 0 mm 4 mps 760 mmHg 72%
    08:00 +15°C° 0 mm 4 mps 760 mmHg 69%
    09:00 +17°C° 0 mm 4 mps 760 mmHg 66%
    10:00 +18°C° 0 mm 4 mps 760 mmHg 62%
    11:00 +19°C° 0 mm 4 mps 760 mmHg 59%
    12:00 +20°C° 0 mm 4 mps 760 mmHg 56%
    13:00 +21°C° 0 mm 4 mps 760 mmHg 53%
    14:00 +21°C° 0 mm 4 mps 760 mmHg 55%
    15:00 +21°C° 0 mm 4 mps 760 mmHg 56%
    16:00 +21°C° 0 mm 4 mps 760 mmHg 57%
    17:00 +20°C° 0 mm 4 mps 760 mmHg 63%
    18:00 +18°C° 0 mm 4 mps 760 mmHg 69%
    19:00 +17°C° 0 mm 4 mps 760 mmHg 76%
    20:00 +15°C° 0 mm 4 mps 760 mmHg 78%
    21:00 +13°C° 0 mm 3 mps 761 mmHg 81%
    22:00 +12°C° 0 mm 3 mps 761 mmHg 84%
    23:00 +11°C° 0 mm 3 mps 761 mmHg 85%

    24 June, Monday

    Time Temperature Precipitation Wind Pressure Humidity
    00:00 +11°C° 0 mm 3 mps 761 mmHg 87%
    01:00 +10°C° 0 mm 3 mps 761 mmHg 89%
    02:00 +10°C° 0 mm 2 mps 761 mmHg 89%
    03:00 +10°C° 0 mm 2 mps 761 mmHg 89%
    04:00 +10°C° 0 mm 2 mps 762 mmHg 89%
    05:00 +12°C° 0 mm 2 mps 762 mmHg 84%
    06:00 +13°C° 0 mm 3 mps 762 mmHg 79%
    07:00 +16°C° 0 mm 3 mps 762 mmHg 74%
    08:00 +18°C° 0 mm 3 mps 762 mmHg 68%
    09:00 +19°C° 0 mm 3 mps 762 mmHg 62%
    10:00 +21°C° 0 mm 3 mps 762 mmHg 56%
    11:00 +22°C° 0 mm 3 mps 762 mmHg 53%
    12:00 +24°C° 0 mm 3 mps 762 mmHg 50%
    13:00 +25°C° 0 mm 3 mps 762 mmHg 47%
    14:00 +25°C° 0 mm 3 mps 762 mmHg 50%
    15:00 +25°C° 0 mm 3 mps 762 mmHg 52%
    16:00 +25°C° 0 mm 3 mps 761 mmHg 54%
    17:00 +22°C° 0 mm 3 mps 762 mmHg 62%
    18:00 +21°C° 0 mm 3 mps 762 mmHg 70%
    19:00 +20°C° 0 mm 3 mps 762 mmHg 78%
    20:00 +18°C° 0 mm 3 mps 762 mmHg 82%
    21:00 +16°C° 0 mm 3 mps 762 mmHg 86%
    22:00 +14°C° 0 mm 3 mps 762 mmHg 90%
    23:00 +13°C° 0 mm 3 mps 763 mmHg 91%
    Show more